Year,Month,Day,Hour,Minute,Value (Times are PST for temperature in C)
2017,09,27,00,00,12.10
2017,09,27,00,01,12.10
2017,09,27,00,02,12.10
2017,09,27,00,03,12.10
2017,09,27,00,04,12.10
2017,09,27,00,05,12.10
2017,09,27,00,06,12.00
2017,09,27,00,07,12.00
2017,09,27,00,08,12.00
2017,09,27,00,09,12.00
2017,09,27,00,10,12.00
2017,09,27,00,11,12.00
2017,09,27,00,12,11.90
2017,09,27,00,13,11.90
2017,09,27,00,14,11.90
2017,09,27,00,15,11.90
2017,09,27,00,16,11.90
2017,09,27,00,17,11.90
2017,09,27,00,18,11.90
2017,09,27,00,19,11.80
2017,09,27,00,20,11.80
2017,09,27,00,21,11.80
2017,09,27,00,22,11.80
2017,09,27,00,23,11.80
2017,09,27,00,24,11.80
2017,09,27,00,25,11.80
2017,09,27,00,26,11.80
2017,09,27,00,27,11.80
2017,09,27,00,28,11.80
2017,09,27,00,29,11.80
2017,09,27,00,30,11.80
2017,09,27,00,31,11.80
2017,09,27,00,32,11.80
2017,09,27,00,33,11.80
2017,09,27,00,34,11.80
2017,09,27,00,35,11.80
2017,09,27,00,36,11.80
2017,09,27,00,37,11.70
2017,09,27,00,38,11.70
2017,09,27,00,39,11.70
2017,09,27,00,40,11.70
2017,09,27,00,41,11.70
2017,09,27,00,42,11.70
2017,09,27,00,43,11.70
2017,09,27,00,44,11.70
2017,09,27,00,45,11.70
2017,09,27,00,46,11.70
2017,09,27,00,47,11.70
2017,09,27,00,48,11.70
2017,09,27,00,49,11.70
2017,09,27,00,50,11.60
2017,09,27,00,51,11.60
2017,09,27,00,52,11.60
2017,09,27,00,53,11.60
2017,09,27,00,54,11.60
2017,09,27,00,55,11.60
2017,09,27,00,56,11.60
2017,09,27,00,57,11.60
2017,09,27,00,58,11.60
2017,09,27,00,59,11.60
2017,09,27,01,00,11.60
2017,09,27,01,01,11.60
2017,09,27,01,02,11.60
2017,09,27,01,03,11.60
2017,09,27,01,04,11.60
2017,09,27,01,05,11.60
2017,09,27,01,06,11.50
2017,09,27,01,07,11.50
2017,09,27,01,08,11.50
2017,09,27,01,09,11.50
2017,09,27,01,10,11.40
2017,09,27,01,11,11.40
2017,09,27,01,12,11.40
2017,09,27,01,13,11.40
2017,09,27,01,14,11.40
2017,09,27,01,15,11.40
2017,09,27,01,16,11.30
2017,09,27,01,17,11.30
2017,09,27,01,18,11.30
2017,09,27,01,19,11.30
2017,09,27,01,20,11.30
2017,09,27,01,21,11.30
2017,09,27,01,22,11.30
2017,09,27,01,23,11.30
2017,09,27,01,24,11.30
2017,09,27,01,25,11.20
2017,09,27,01,26,11.20
2017,09,27,01,27,11.20
2017,09,27,01,28,11.20
2017,09,27,01,29,11.20
2017,09,27,01,30,11.20
2017,09,27,01,31,11.20
2017,09,27,01,32,11.20
2017,09,27,01,33,11.20
2017,09,27,01,34,11.20
2017,09,27,01,35,11.20
2017,09,27,01,36,11.20
2017,09,27,01,37,11.20
2017,09,27,01,38,11.20
2017,09,27,01,39,11.10
2017,09,27,01,40,11.10
2017,09,27,01,41,11.10
2017,09,27,01,42,11.10
2017,09,27,01,43,11.10
2017,09,27,01,44,11.10
2017,09,27,01,45,11.10
2017,09,27,01,46,11.10
2017,09,27,01,47,11.10
2017,09,27,01,48,11.10
2017,09,27,01,49,11.10
2017,09,27,01,50,11.10
2017,09,27,01,51,11.10
2017,09,27,01,52,11.10
2017,09,27,01,53,11.10
2017,09,27,01,54,11.10
2017,09,27,01,55,11.00
2017,09,27,01,56,11.00
2017,09,27,01,57,11.10
2017,09,27,01,58,11.00
2017,09,27,01,59,11.10
2017,09,27,02,00,11.10
2017,09,27,02,01,11.10
2017,09,27,02,02,11.10
2017,09,27,02,03,11.00
2017,09,27,02,04,11.00
2017,09,27,02,05,11.00
2017,09,27,02,06,11.00
2017,09,27,02,07,11.00
2017,09,27,02,08,11.00
2017,09,27,02,09,11.00
2017,09,27,02,10,11.00
2017,09,27,02,11,11.00
2017,09,27,02,12,11.00
2017,09,27,02,13,11.00
2017,09,27,02,14,11.00
2017,09,27,02,15,10.90
2017,09,27,02,16,11.00
2017,09,27,02,17,10.90
2017,09,27,02,18,10.90
2017,09,27,02,19,10.90
2017,09,27,02,20,10.90
2017,09,27,02,21,10.90
2017,09,27,02,22,10.90
2017,09,27,02,23,10.90
2017,09,27,02,24,10.90
2017,09,27,02,25,10.90
2017,09,27,02,26,10.90
2017,09,27,02,27,10.90
2017,09,27,02,28,10.90
2017,09,27,02,29,10.90
2017,09,27,02,30,10.90
2017,09,27,02,31,10.80
2017,09,27,02,32,10.80
2017,09,27,02,33,10.80
2017,09,27,02,34,10.80
2017,09,27,02,35,10.80
2017,09,27,02,36,10.80
2017,09,27,02,37,10.80
2017,09,27,02,38,10.80
2017,09,27,02,39,10.80
2017,09,27,02,40,10.80
2017,09,27,02,41,10.80
2017,09,27,02,42,10.80
2017,09,27,02,43,10.80
2017,09,27,02,44,10.80
2017,09,27,02,45,10.80
2017,09,27,02,46,10.70
2017,09,27,02,47,10.70
2017,09,27,02,48,10.70
2017,09,27,02,49,10.70
2017,09,27,02,50,10.70
2017,09,27,02,51,10.70
2017,09,27,02,52,10.70
2017,09,27,02,53,10.70
2017,09,27,02,54,10.70
2017,09,27,02,55,10.70
2017,09,27,02,56,10.70
2017,09,27,02,57,10.60
2017,09,27,02,58,10.60
2017,09,27,02,59,10.60
2017,09,27,03,00,10.60
2017,09,27,03,01,10.60
2017,09,27,03,02,10.60
2017,09,27,03,03,10.60
2017,09,27,03,04,10.60
2017,09,27,03,05,10.60
2017,09,27,03,06,10.60
2017,09,27,03,07,10.60
2017,09,27,03,08,10.60
2017,09,27,03,09,10.60
2017,09,27,03,10,10.60
2017,09,27,03,11,10.60
2017,09,27,03,12,10.50
2017,09,27,03,13,10.50
2017,09,27,03,14,10.50
2017,09,27,03,15,10.40
2017,09,27,03,16,10.40
2017,09,27,03,17,10.40
2017,09,27,03,18,10.40
2017,09,27,03,19,10.40
2017,09,27,03,20,10.40
2017,09,27,03,21,10.40
2017,09,27,03,22,10.40
2017,09,27,03,23,10.40
2017,09,27,03,24,10.40
2017,09,27,03,25,10.40
2017,09,27,03,26,10.30
2017,09,27,03,27,10.30
2017,09,27,03,28,10.30
2017,09,27,03,29,10.30
2017,09,27,03,30,10.30
2017,09,27,03,31,10.30
2017,09,27,03,32,10.30
2017,09,27,03,33,10.30
2017,09,27,03,34,10.30
2017,09,27,03,35,10.30
2017,09,27,03,36,10.30
2017,09,27,03,37,10.30
2017,09,27,03,38,10.30
2017,09,27,03,39,10.30
2017,09,27,03,40,10.30
2017,09,27,03,41,10.30
2017,09,27,03,42,10.30
2017,09,27,03,43,10.30
2017,09,27,03,44,10.30
2017,09,27,03,45,10.30
2017,09,27,03,46,10.30
2017,09,27,03,47,10.30
2017,09,27,03,48,10.30
2017,09,27,03,49,10.30
2017,09,27,03,50,10.30
2017,09,27,03,51,10.30
2017,09,27,03,52,10.30
2017,09,27,03,53,10.20
2017,09,27,03,54,10.20
2017,09,27,03,55,10.20
2017,09,27,03,56,10.20
2017,09,27,03,57,10.20
2017,09,27,03,58,10.20
2017,09,27,03,59,10.20
2017,09,27,04,00,10.20
2017,09,27,04,01,10.20
2017,09,27,04,02,10.20
2017,09,27,04,03,10.20
2017,09,27,04,04,10.20
2017,09,27,04,05,10.20
2017,09,27,04,06,10.20
2017,09,27,04,07,10.20
2017,09,27,04,08,10.20
2017,09,27,04,09,10.20
2017,09,27,04,10,10.20
2017,09,27,04,11,10.20
2017,09,27,04,12,10.20
2017,09,27,04,13,10.20
2017,09,27,04,14,10.10
2017,09,27,04,15,10.10
2017,09,27,04,16,10.10
2017,09,27,04,17,10.10
2017,09,27,04,18,10.10
2017,09,27,04,19,10.10
2017,09,27,04,20,10.10
2017,09,27,04,21,10.10
2017,09,27,04,22,10.10
2017,09,27,04,23,10.00
2017,09,27,04,24,10.00
2017,09,27,04,25,10.00
2017,09,27,04,26,10.00
2017,09,27,04,27,10.00
2017,09,27,04,28,10.00
2017,09,27,04,29,10.00
2017,09,27,04,30,10.00
2017,09,27,04,31,10.00
2017,09,27,04,32,10.00
2017,09,27,04,33,10.00
2017,09,27,04,34,10.00
2017,09,27,04,35,10.00
2017,09,27,04,36,10.00
2017,09,27,04,37,9.90
2017,09,27,04,38,9.90
2017,09,27,04,39,9.90
2017,09,27,04,40,9.90
2017,09,27,04,41,9.90
2017,09,27,04,42,9.90
2017,09,27,04,43,9.90
2017,09,27,04,44,9.90
2017,09,27,04,45,9.90
2017,09,27,04,46,9.90
2017,09,27,04,47,9.90
2017,09,27,04,48,9.90
2017,09,27,04,49,10.00
2017,09,27,04,50,10.00
2017,09,27,04,51,10.00
2017,09,27,04,52,10.00
2017,09,27,04,53,10.00
2017,09,27,04,54,10.00
2017,09,27,04,55,9.90
2017,09,27,04,56,10.00
2017,09,27,04,57,9.90
2017,09,27,04,58,9.90
2017,09,27,04,59,9.90
2017,09,27,05,00,9.90
2017,09,27,05,01,9.90
2017,09,27,05,02,9.90
2017,09,27,05,03,9.90
2017,09,27,05,04,9.90
2017,09,27,05,05,9.90
2017,09,27,05,06,9.90
2017,09,27,05,07,9.90
2017,09,27,05,08,9.90
2017,09,27,05,09,9.90
2017,09,27,05,10,9.90
2017,09,27,05,11,9.90
2017,09,27,05,12,9.90
2017,09,27,05,13,9.90
2017,09,27,05,14,9.90
2017,09,27,05,15,9.90
2017,09,27,05,16,9.90
2017,09,27,05,17,9.90
2017,09,27,05,18,9.90
2017,09,27,05,19,9.90
2017,09,27,05,20,9.90
2017,09,27,05,21,9.90
2017,09,27,05,22,9.90
2017,09,27,05,23,9.90
2017,09,27,05,24,9.90
2017,09,27,05,25,9.90
2017,09,27,05,26,9.90
2017,09,27,05,27,9.90
2017,09,27,05,28,9.90
2017,09,27,05,29,9.90
2017,09,27,05,30,9.90
2017,09,27,05,31,9.90
2017,09,27,05,32,9.90
2017,09,27,05,33,9.90
2017,09,27,05,34,9.90
2017,09,27,05,35,9.90
2017,09,27,05,36,9.90
2017,09,27,05,37,9.90
2017,09,27,05,38,9.90
2017,09,27,05,39,9.90
2017,09,27,05,40,9.90
2017,09,27,05,41,9.90
2017,09,27,05,42,9.90
2017,09,27,05,43,9.90
2017,09,27,05,44,9.90
2017,09,27,05,45,9.90
2017,09,27,05,46,9.90
2017,09,27,05,47,9.90
2017,09,27,05,48,9.90
2017,09,27,05,49,9.90
2017,09,27,05,50,9.90
2017,09,27,05,51,9.90
2017,09,27,05,52,9.90
2017,09,27,05,53,9.90
2017,09,27,05,54,9.90
2017,09,27,05,55,9.90
2017,09,27,05,56,9.90
2017,09,27,05,57,9.90
2017,09,27,05,58,9.90
2017,09,27,05,59,9.90
2017,09,27,06,00,9.90
2017,09,27,06,01,9.90
2017,09,27,06,02,9.90
2017,09,27,06,03,9.90
2017,09,27,06,04,9.80
2017,09,27,06,05,9.80
2017,09,27,06,06,9.80
2017,09,27,06,07,9.80
2017,09,27,06,08,9.80
2017,09,27,06,09,9.80
2017,09,27,06,10,9.80
2017,09,27,06,11,9.80
2017,09,27,06,12,9.80
2017,09,27,06,13,9.80
2017,09,27,06,14,9.80
2017,09,27,06,15,9.80
2017,09,27,06,16,9.80
2017,09,27,06,17,9.80
2017,09,27,06,18,9.80
2017,09,27,06,19,9.80
2017,09,27,06,20,9.80
2017,09,27,06,21,9.80
2017,09,27,06,22,9.80
2017,09,27,06,23,9.80
2017,09,27,06,24,9.80
2017,09,27,06,25,9.80
2017,09,27,06,26,9.80
2017,09,27,06,27,9.80
2017,09,27,06,28,9.80
2017,09,27,06,29,9.70
2017,09,27,06,30,9.70
2017,09,27,06,31,9.70
2017,09,27,06,32,9.70
2017,09,27,06,33,9.70
2017,09,27,06,34,9.70
2017,09,27,06,35,9.70
2017,09,27,06,36,9.70
2017,09,27,06,37,9.70
2017,09,27,06,38,9.70
2017,09,27,06,39,9.70
2017,09,27,06,40,9.70
2017,09,27,06,41,9.70
2017,09,27,06,42,9.70
2017,09,27,06,43,9.70
2017,09,27,06,44,9.70
2017,09,27,06,45,9.70
2017,09,27,06,46,9.70
2017,09,27,06,47,9.70
2017,09,27,06,48,9.70
2017,09,27,06,49,9.70
2017,09,27,06,50,9.70
2017,09,27,06,51,9.60
2017,09,27,06,52,9.60
2017,09,27,06,53,9.60
2017,09,27,06,54,9.60
2017,09,27,06,55,9.60
2017,09,27,06,56,9.60
2017,09,27,06,57,9.60
2017,09,27,06,58,9.60
2017,09,27,06,59,9.60
2017,09,27,07,00,9.60
2017,09,27,07,01,9.60
2017,09,27,07,02,9.60
2017,09,27,07,03,9.50
2017,09,27,07,04,9.50
2017,09,27,07,05,9.50
2017,09,27,07,06,9.40
2017,09,27,07,07,9.40
2017,09,27,07,08,9.40
2017,09,27,07,09,9.40
2017,09,27,07,10,9.40
2017,09,27,07,11,9.40
2017,09,27,07,12,9.40
2017,09,27,07,13,9.40
2017,09,27,07,14,9.40
2017,09,27,07,15,9.40
2017,09,27,07,16,9.40
2017,09,27,07,17,9.40
2017,09,27,07,18,9.40
2017,09,27,07,19,9.40
2017,09,27,07,20,9.40
2017,09,27,07,21,9.50
2017,09,27,07,22,9.50
2017,09,27,07,23,9.50
2017,09,27,07,24,9.50
2017,09,27,07,25,9.50
2017,09,27,07,26,9.50
2017,09,27,07,27,9.50
2017,09,27,07,28,9.50
2017,09,27,07,29,9.50
2017,09,27,07,30,9.40
2017,09,27,07,31,9.50
2017,09,27,07,32,9.40
2017,09,27,07,33,9.50
2017,09,27,07,34,9.50
2017,09,27,07,35,9.50
2017,09,27,07,36,9.50
2017,09,27,07,37,9.50
2017,09,27,07,38,9.50
2017,09,27,07,39,9.60
2017,09,27,07,40,9.60
2017,09,27,07,41,9.60
2017,09,27,07,42,9.60
2017,09,27,07,43,9.60
2017,09,27,07,44,9.60
2017,09,27,07,45,9.60
2017,09,27,07,46,9.60
2017,09,27,07,47,9.60
2017,09,27,07,48,9.60
2017,09,27,07,49,9.60
2017,09,27,07,50,9.60
2017,09,27,07,51,9.60
2017,09,27,07,52,9.60
2017,09,27,07,53,9.60
2017,09,27,07,54,9.60
2017,09,27,07,55,9.60
2017,09,27,07,56,9.60
2017,09,27,07,57,9.60
2017,09,27,07,58,9.60
2017,09,27,07,59,9.60
2017,09,27,08,00,9.60
2017,09,27,08,01,9.60
2017,09,27,08,02,9.70
2017,09,27,08,03,9.70
2017,09,27,08,04,9.70
2017,09,27,08,05,9.70
2017,09,27,08,06,9.70
2017,09,27,08,07,9.70
2017,09,27,08,08,9.70
2017,09,27,08,09,9.80
2017,09,27,08,10,9.80
2017,09,27,08,11,9.80
2017,09,27,08,12,9.80
2017,09,27,08,13,9.80
2017,09,27,08,14,9.80
2017,09,27,08,15,9.80
2017,09,27,08,16,9.80
2017,09,27,08,17,9.80
2017,09,27,08,18,9.80
2017,09,27,08,19,9.80
2017,09,27,08,20,9.80
2017,09,27,08,21,9.90
2017,09,27,08,22,9.90
2017,09,27,08,23,9.90
2017,09,27,08,24,9.90
2017,09,27,08,25,9.90
2017,09,27,08,26,9.90
2017,09,27,08,27,9.90
2017,09,27,08,28,9.90
2017,09,27,08,29,9.90
2017,09,27,08,30,9.90
2017,09,27,08,31,9.90
2017,09,27,08,32,9.90
2017,09,27,08,33,9.90
2017,09,27,08,34,10.00
2017,09,27,08,35,10.00
2017,09,27,08,36,10.00
2017,09,27,08,37,10.00
2017,09,27,08,38,10.10
2017,09,27,08,39,10.10
2017,09,27,08,40,10.10
2017,09,27,08,41,10.20
2017,09,27,08,42,10.20
2017,09,27,08,43,10.20
2017,09,27,08,44,10.20
2017,09,27,08,45,10.30
2017,09,27,08,46,10.30
2017,09,27,08,47,10.40
2017,09,27,08,48,10.40
2017,09,27,08,49,10.50
2017,09,27,08,50,10.50
2017,09,27,08,51,10.60
2017,09,27,08,52,10.60
2017,09,27,08,53,10.60
2017,09,27,08,54,10.60
2017,09,27,08,55,10.70
2017,09,27,08,56,10.70
2017,09,27,08,57,10.70
2017,09,27,08,58,10.80
2017,09,27,08,59,10.80
2017,09,27,09,00,10.80
2017,09,27,09,01,10.80
2017,09,27,09,02,10.80
2017,09,27,09,03,10.90
2017,09,27,09,04,10.90
2017,09,27,09,05,10.90
2017,09,27,09,06,10.90
2017,09,27,09,07,11.00
2017,09,27,09,08,11.00
2017,09,27,09,09,11.10
2017,09,27,09,10,11.10
2017,09,27,09,11,11.10
2017,09,27,09,12,11.20
2017,09,27,09,13,11.20
2017,09,27,09,14,11.20
2017,09,27,09,15,11.20
2017,09,27,09,16,11.30
2017,09,27,09,17,11.30
2017,09,27,09,18,11.30
2017,09,27,09,19,11.30
2017,09,27,09,20,11.40
2017,09,27,09,21,11.40
2017,09,27,09,22,11.40
2017,09,27,09,23,11.50
2017,09,27,09,24,11.50
2017,09,27,09,25,11.60
2017,09,27,09,26,11.60
2017,09,27,09,27,11.60
2017,09,27,09,28,11.70
2017,09,27,09,29,11.70
2017,09,27,09,30,11.80
2017,09,27,09,31,11.80
2017,09,27,09,32,11.80
2017,09,27,09,33,11.90
2017,09,27,09,34,11.90
2017,09,27,09,35,11.90
2017,09,27,09,36,11.90
2017,09,27,09,37,12.00
2017,09,27,09,38,12.00
2017,09,27,09,39,12.00
2017,09,27,09,40,12.10
2017,09,27,09,41,12.20
2017,09,27,09,42,12.30
2017,09,27,09,43,12.30
2017,09,27,09,44,12.40
2017,09,27,09,45,12.50
2017,09,27,09,46,12.60
2017,09,27,09,47,12.80
2017,09,27,09,48,12.80
2017,09,27,09,49,12.90
2017,09,27,09,50,13.00
2017,09,27,09,51,13.10
2017,09,27,09,52,13.20
2017,09,27,09,53,13.20
2017,09,27,09,54,13.30
2017,09,27,09,55,13.40
2017,09,27,09,56,13.50
2017,09,27,09,57,13.60
2017,09,27,09,58,13.70
2017,09,27,09,59,13.80
2017,09,27,10,00,13.80
2017,09,27,10,01,13.90
2017,09,27,10,02,14.00
2017,09,27,10,03,14.10
2017,09,27,10,04,14.20
2017,09,27,10,05,14.30
2017,09,27,10,06,14.40
2017,09,27,10,07,14.40
2017,09,27,10,08,14.50
2017,09,27,10,09,14.60
2017,09,27,10,10,14.80
2017,09,27,10,11,14.90
2017,09,27,10,12,15.00
2017,09,27,10,13,15.00
2017,09,27,10,14,15.00
2017,09,27,10,15,15.00
2017,09,27,10,16,15.00
2017,09,27,10,17,15.10
2017,09,27,10,18,15.20
2017,09,27,10,19,15.20
2017,09,27,10,20,15.30
2017,09,27,10,21,15.30
2017,09,27,10,22,15.40
2017,09,27,10,23,15.40
2017,09,27,10,24,15.50
2017,09,27,10,25,15.60
2017,09,27,10,26,15.60
2017,09,27,10,27,15.70
2017,09,27,10,28,15.70
2017,09,27,10,29,15.70
2017,09,27,10,30,15.70
2017,09,27,10,31,15.80
2017,09,27,10,32,15.80
2017,09,27,10,33,15.80
2017,09,27,10,34,15.90
2017,09,27,10,35,15.90
2017,09,27,10,36,16.00
2017,09,27,10,37,16.10
2017,09,27,10,38,16.20
2017,09,27,10,39,16.20
2017,09,27,10,40,16.30
2017,09,27,10,41,16.30
2017,09,27,10,42,16.40
2017,09,27,10,43,16.50
2017,09,27,10,44,16.60
2017,09,27,10,45,16.70
2017,09,27,10,46,16.80
2017,09,27,10,47,16.90
2017,09,27,10,48,16.90
2017,09,27,10,49,17.00
2017,09,27,10,50,17.10
2017,09,27,10,51,17.10
2017,09,27,10,52,17.20
2017,09,27,10,53,17.30
2017,09,27,10,54,17.40
2017,09,27,10,55,17.50
2017,09,27,10,56,17.50
2017,09,27,10,57,17.60
2017,09,27,10,58,17.70
2017,09,27,10,59,17.80
2017,09,27,11,00,17.80
2017,09,27,11,01,17.80
2017,09,27,11,02,17.90
2017,09,27,11,03,18.00
2017,09,27,11,04,18.10
2017,09,27,11,05,18.20
2017,09,27,11,06,18.30
2017,09,27,11,07,18.40
2017,09,27,11,08,18.50
2017,09,27,11,09,18.60
2017,09,27,11,10,18.70
2017,09,27,11,11,18.80
2017,09,27,11,12,18.80
2017,09,27,11,13,18.90
2017,09,27,11,14,18.90
2017,09,27,11,15,19.00
2017,09,27,11,16,19.10
2017,09,27,11,17,19.10
2017,09,27,11,18,19.20
2017,09,27,11,19,19.20
2017,09,27,11,20,19.20
2017,09,27,11,21,19.30
2017,09,27,11,22,19.30
2017,09,27,11,23,19.40
2017,09,27,11,24,19.50
2017,09,27,11,25,19.60
2017,09,27,11,26,19.70
2017,09,27,11,27,19.70
2017,09,27,11,28,19.80
2017,09,27,11,29,19.90
2017,09,27,11,30,19.90
2017,09,27,11,31,19.90
2017,09,27,11,32,20.00
2017,09,27,11,33,20.00
2017,09,27,11,34,20.00
2017,09,27,11,35,20.00
2017,09,27,11,36,20.00
2017,09,27,11,37,20.10
2017,09,27,11,38,20.10
2017,09,27,11,39,20.10
2017,09,27,11,40,20.10
2017,09,27,11,41,20.10
2017,09,27,11,42,20.10
2017,09,27,11,43,20.10
2017,09,27,11,44,20.10
2017,09,27,11,45,20.10
2017,09,27,11,46,20.10
2017,09,27,11,47,20.20
2017,09,27,11,48,20.20
2017,09,27,11,49,20.20
2017,09,27,11,50,20.20
2017,09,27,11,51,20.20
2017,09,27,11,52,20.20
2017,09,27,11,53,20.30
2017,09,27,11,54,20.30
2017,09,27,11,55,20.30
2017,09,27,11,56,20.30
2017,09,27,11,57,20.40
2017,09,27,11,58,20.50
2017,09,27,11,59,20.60
2017,09,27,12,00,20.70
2017,09,27,12,01,20.70
2017,09,27,12,02,20.80
2017,09,27,12,03,20.90
2017,09,27,12,04,20.90
2017,09,27,12,05,20.90
2017,09,27,12,06,20.90
2017,09,27,12,07,20.90
2017,09,27,12,08,21.00
2017,09,27,12,09,21.00
2017,09,27,12,10,21.10
2017,09,27,12,11,21.10
2017,09,27,12,12,21.10
2017,09,27,12,13,21.10
2017,09,27,12,14,21.20
2017,09,27,12,15,21.20
2017,09,27,12,16,21.30
2017,09,27,12,17,21.30
2017,09,27,12,18,21.40
2017,09,27,12,19,21.40
2017,09,27,12,20,21.40
2017,09,27,12,21,21.40
2017,09,27,12,22,21.50
2017,09,27,12,23,21.60
2017,09,27,12,24,21.60
2017,09,27,12,25,21.70
2017,09,27,12,26,21.80
2017,09,27,12,27,21.80
2017,09,27,12,28,21.80
2017,09,27,12,29,21.90
2017,09,27,12,30,21.90
2017,09,27,12,31,21.90
2017,09,27,12,32,21.90
2017,09,27,12,33,21.90
2017,09,27,12,34,22.00
2017,09,27,12,35,21.90
2017,09,27,12,36,21.90
2017,09,27,12,37,21.90
2017,09,27,12,38,21.90
2017,09,27,12,39,21.90
2017,09,27,12,40,21.80
2017,09,27,12,41,21.80
2017,09,27,12,42,21.80
2017,09,27,12,43,21.90
2017,09,27,12,44,21.90
2017,09,27,12,45,21.90
2017,09,27,12,46,21.90
2017,09,27,12,47,22.00
2017,09,27,12,48,22.00
2017,09,27,12,49,22.10
2017,09,27,12,50,22.10
2017,09,27,12,51,22.20
2017,09,27,12,52,22.20
2017,09,27,12,53,22.20
2017,09,27,12,54,22.20
2017,09,27,12,55,22.30
2017,09,27,12,56,22.30
2017,09,27,12,57,22.30
2017,09,27,12,58,22.40
2017,09,27,12,59,22.40
2017,09,27,13,00,22.50
2017,09,27,13,01,22.50
2017,09,27,13,02,22.50
2017,09,27,13,03,22.50
2017,09,27,13,04,22.50
2017,09,27,13,05,22.50
2017,09,27,13,06,22.50
2017,09,27,13,07,22.50
2017,09,27,13,08,22.50
2017,09,27,13,09,22.50
2017,09,27,13,10,22.60
2017,09,27,13,11,22.60
2017,09,27,13,12,22.70
2017,09,27,13,13,22.70
2017,09,27,13,14,22.70
2017,09,27,13,15,22.70
2017,09,27,13,16,22.70
2017,09,27,13,17,22.70
2017,09,27,13,18,22.70
2017,09,27,13,19,22.80
2017,09,27,13,20,22.80
2017,09,27,13,21,22.80
2017,09,27,13,22,22.90
2017,09,27,13,23,22.90
2017,09,27,13,24,22.90
2017,09,27,13,25,23.00
2017,09,27,13,26,23.00
2017,09,27,13,27,23.00
2017,09,27,13,28,23.10
2017,09,27,13,29,23.10
2017,09,27,13,30,23.10
2017,09,27,13,31,23.10
2017,09,27,13,32,23.10
2017,09,27,13,33,23.10
2017,09,27,13,34,23.20
2017,09,27,13,35,23.20
2017,09,27,13,36,23.20
2017,09,27,13,37,23.30
2017,09,27,13,38,23.30
2017,09,27,13,39,23.30
2017,09,27,13,40,23.30
2017,09,27,13,41,23.40
2017,09,27,13,42,23.40
2017,09,27,13,43,23.40
2017,09,27,13,44,23.40
2017,09,27,13,45,23.40
2017,09,27,13,46,23.40
2017,09,27,13,47,23.40
2017,09,27,13,48,23.40
2017,09,27,13,49,23.40
2017,09,27,13,50,23.40
2017,09,27,13,51,23.40
2017,09,27,13,52,23.40
2017,09,27,13,53,23.50
2017,09,27,13,54,23.50
2017,09,27,13,55,23.60
2017,09,27,13,56,23.60
2017,09,27,13,57,23.70
2017,09,27,13,58,23.70
2017,09,27,13,59,23.60
2017,09,27,14,00,23.60
2017,09,27,14,01,23.50
2017,09,27,14,02,23.50
2017,09,27,14,03,23.60
2017,09,27,14,04,23.60
2017,09,27,14,05,23.60
2017,09,27,14,06,23.60
2017,09,27,14,07,23.70
2017,09,27,14,08,23.70
2017,09,27,14,09,23.70
2017,09,27,14,10,23.70
2017,09,27,14,11,23.70
2017,09,27,14,12,23.70
2017,09,27,14,13,23.70
2017,09,27,14,14,23.70
2017,09,27,14,15,23.70
2017,09,27,14,16,23.70
2017,09,27,14,17,23.80
2017,09,27,14,18,23.80
2017,09,27,14,19,23.80
2017,09,27,14,20,23.80
2017,09,27,14,21,23.80
2017,09,27,14,22,23.90
2017,09,27,14,23,24.00
2017,09,27,14,24,24.00
2017,09,27,14,25,24.10
2017,09,27,14,26,24.10
2017,09,27,14,27,24.20
2017,09,27,14,28,24.20
2017,09,27,14,29,24.20
2017,09,27,14,30,24.20
2017,09,27,14,31,24.20
2017,09,27,14,32,24.20
2017,09,27,14,33,24.20
2017,09,27,14,34,24.20
2017,09,27,14,35,24.10
2017,09,27,14,36,24.10
2017,09,27,14,37,24.10
2017,09,27,14,38,24.10
2017,09,27,14,39,24.10
2017,09,27,14,40,24.10
2017,09,27,14,41,24.10
2017,09,27,14,42,24.20
2017,09,27,14,43,24.20
2017,09,27,14,44,24.20
2017,09,27,14,45,24.30
2017,09,27,14,46,24.30
2017,09,27,14,47,24.30
2017,09,27,14,48,24.20
2017,09,27,14,49,24.30
2017,09,27,14,50,24.30
2017,09,27,14,51,24.20
2017,09,27,14,52,24.30
2017,09,27,14,53,24.20
2017,09,27,14,54,24.20
2017,09,27,14,55,24.20
2017,09,27,14,56,24.20
2017,09,27,14,57,24.20
2017,09,27,14,58,24.20
2017,09,27,14,59,24.20
2017,09,27,15,00,24.20
2017,09,27,15,01,24.20
2017,09,27,15,02,24.30
2017,09,27,15,03,24.30
2017,09,27,15,04,24.30
2017,09,27,15,05,24.30
2017,09,27,15,06,24.30
2017,09,27,15,07,24.30
2017,09,27,15,08,24.30
2017,09,27,15,09,24.30
2017,09,27,15,10,24.20
2017,09,27,15,11,24.30
2017,09,27,15,12,24.20
2017,09,27,15,13,24.20
2017,09,27,15,14,24.20
2017,09,27,15,15,24.20
2017,09,27,15,16,24.20
2017,09,27,15,17,24.20
2017,09,27,15,18,24.30
2017,09,27,15,19,24.30
2017,09,27,15,20,24.30
2017,09,27,15,21,24.30
2017,09,27,15,22,24.30
2017,09,27,15,23,24.30
2017,09,27,15,24,24.30
2017,09,27,15,25,24.30
2017,09,27,15,26,24.30
2017,09,27,15,27,24.30
2017,09,27,15,28,24.30
2017,09,27,15,29,24.40
2017,09,27,15,30,24.40
2017,09,27,15,31,24.50
2017,09,27,15,32,24.50
2017,09,27,15,33,24.50
2017,09,27,15,34,24.50
2017,09,27,15,35,24.40
2017,09,27,15,36,24.40
2017,09,27,15,37,24.40
2017,09,27,15,38,24.50
2017,09,27,15,39,24.50
2017,09,27,15,40,24.50
2017,09,27,15,41,24.60
2017,09,27,15,42,24.60
2017,09,27,15,43,24.70
2017,09,27,15,44,24.70
2017,09,27,15,45,24.80
2017,09,27,15,46,24.80
2017,09,27,15,47,24.80
2017,09,27,15,48,24.80
2017,09,27,15,49,24.80
2017,09,27,15,50,24.90
2017,09,27,15,51,24.90
2017,09,27,15,52,24.90
2017,09,27,15,53,24.90
2017,09,27,15,54,24.90
2017,09,27,15,55,25.00
2017,09,27,15,56,24.90
2017,09,27,15,57,24.90
2017,09,27,15,58,24.90
2017,09,27,15,59,24.90
2017,09,27,16,00,24.90
2017,09,27,16,01,24.90
2017,09,27,16,02,24.90
2017,09,27,16,03,24.90
2017,09,27,16,04,24.80
2017,09,27,16,05,24.80
2017,09,27,16,06,24.70
2017,09,27,16,07,24.70
2017,09,27,16,08,24.70
2017,09,27,16,09,24.80
2017,09,27,16,10,24.80
2017,09,27,16,11,24.80
2017,09,27,16,12,24.80
2017,09,27,16,13,24.80
2017,09,27,16,14,24.90
2017,09,27,16,15,24.90
2017,09,27,16,16,25.00
2017,09,27,16,17,25.10
2017,09,27,16,18,25.10
2017,09,27,16,19,25.10
2017,09,27,16,20,25.10
2017,09,27,16,21,25.20
2017,09,27,16,22,25.20
2017,09,27,16,23,25.20
2017,09,27,16,24,25.30
2017,09,27,16,25,25.30
2017,09,27,16,26,25.30
2017,09,27,16,27,25.30
2017,09,27,16,28,25.20
2017,09,27,16,29,25.20
2017,09,27,16,30,25.20
2017,09,27,16,31,25.10
2017,09,27,16,32,25.10
2017,09,27,16,33,25.00
2017,09,27,16,34,24.90
2017,09,27,16,35,24.90
2017,09,27,16,36,24.80
2017,09,27,16,37,24.80
2017,09,27,16,38,24.80
2017,09,27,16,39,24.80
2017,09,27,16,40,24.70
2017,09,27,16,41,24.60
2017,09,27,16,42,24.60
2017,09,27,16,43,24.60
2017,09,27,16,44,24.60
2017,09,27,16,45,24.60
2017,09,27,16,46,24.60
2017,09,27,16,47,24.60
2017,09,27,16,48,24.60
2017,09,27,16,49,24.60
2017,09,27,16,50,24.60
2017,09,27,16,51,24.60
2017,09,27,16,52,24.60
2017,09,27,16,53,24.70
2017,09,27,16,54,24.70
2017,09,27,16,55,24.70
2017,09,27,16,56,24.70
2017,09,27,16,57,24.70
2017,09,27,16,58,24.70
2017,09,27,16,59,24.70
2017,09,27,17,00,24.80
2017,09,27,17,01,24.80
2017,09,27,17,02,24.80
2017,09,27,17,03,24.80
2017,09,27,17,04,24.90
2017,09,27,17,05,24.90
2017,09,27,17,06,24.90
2017,09,27,17,07,25.00
2017,09,27,17,08,25.00
2017,09,27,17,09,24.90
2017,09,27,17,10,24.90
2017,09,27,17,11,24.90
2017,09,27,17,12,24.90
2017,09,27,17,13,24.90
2017,09,27,17,14,24.80
2017,09,27,17,15,24.80
2017,09,27,17,16,24.80
2017,09,27,17,17,24.80
2017,09,27,17,18,24.80
2017,09,27,17,19,24.70
2017,09,27,17,20,24.70
2017,09,27,17,21,24.70
2017,09,27,17,22,24.70
2017,09,27,17,23,24.70
2017,09,27,17,24,24.70
2017,09,27,17,25,24.70
2017,09,27,17,26,24.60
2017,09,27,17,27,24.60
2017,09,27,17,28,24.50
2017,09,27,17,29,24.50